Погода в Кубани Озере

Россия / Самарская область     53°55′28″N   49°58′31″E
темп.,
°C
ветер,
м/с
пор.,
м/с
влажн.,
%
обл.,
%
осадки,
мм/ч
давл.,
гПа
погр.,
м
17 июня, чт
чт1701:00+17сз499244 0.4 1009229
04:00+17ссз5109879 0.4 1011416
07:00+16ссз6118769 0.0 1013618
10:00+19с710570 0.0 1015932
13:00+21с810460 0.0 10161583
16:00+21с69500 0.0 10171676
19:00+20ссз59640 0.0 1018537
22:00+15ссз37740 0.0 1020120
18 июня, пт
пт1801:00+13ссз348228 0.0 102067
04:00+12с411800 0.0 1022279
07:00+14с510680 0.0 1024504
10:00+18с57462 0.0 10251442
13:00+20с6743100 0.0 10251728
16:00+20с67463 0.0 10251603
19:00+18с476219 0.0 1026433
22:00+13с227675 0.0 102721
19 июня, сб
сб1901:00+12с228079 0.0 102712
04:00+11ссз118439 0.0 102810
07:00+15зсз22725 0.0 1029171
10:00+20з34565 0.0 1028713
13:00+22з445111 0.0 10271034
16:00+23з555332 0.0 10251058
19:00+22з36690 0.0 1024306
22:00+18зюз48790 0.0 1024132
20 июня, вс
вс2001:00+17з49920 0.0 1024158
04:00+16з48950 0.0 1024149
07:00+20зсз47830 0.0 1024245
10:00+25сз46650 0.0 1023767
13:00+27сз56550 0.0 10231686
16:00+28сз45512 0.0 10221864
19:00+26сз36690 0.0 1022240
22:00+21сз22850 0.1 102214
21 июня, пн
пн2101:00+19зсз22890 0.0 102221
04:00+18сз22910 0.0 102216
07:00+22зсз23820 0.0 1022193
10:00+26зсз336513 0.0 1022832
13:00+27з4356100 0.0 10211409
16:00+28зсз445399 0.0 10201592
19:00+26сз356576 0.0 1020208
22:00+21зсз22750 0.0 102014